Regional Weather Roundup
Issued by NWS

Home | Current Version | Previous Version | Graphics & Text | Print | Product List | Glossary On
Versions: 1 2 3 4 5 6 7 8 9 10 11 12 13 14 15 16 17 18 19 20 21 22 23 24 25 26 27 28 29 30 31 32 33 34 35 36 37 38 39 40 41 42 43 44 45 46 47 48 49 50
000
ASUS43 KOAX 221002
RWRNE

WEATHER ROUNDUP FOR NEBRASKA
NATIONAL WEATHER SERVICE OMAHA NE
500 AM CDT WED MAR 22 2017

NOTES: SATELLITE DATA IS BEING USED TO AUGMENT CLOUD COVER ABOVE
       12000 FEET.
       "FAIR" INDICATES FEW OR NO CLOUDS BELOW 12,000 FEET WITH NO
       SIGNIFICANT WEATHER AND/OR OBSTRUCTIONS TO VISIBILITY.

  * THESE STATIONS DO NOT REPORT WEATHER SUCH AS RAIN...SNOW OR FOG.

NEZ001>004-019>022-054>056-221100-
NEBRASKA PANHANDLE

CITY           SKY/WX    TMP DP  RH WIND       PRES   REMARKS
SCOTTSBLUFF    CLEAR     36  29  75 SE15      30.10F WCI  27
ALLIANCE       PTCLDY    35  31  85 S24G30    30.12F WCI  23
CHADRON        PTCLDY    39  31  72 S24G33    30.04F WCI  28
KIMBALL        CLOUDY    33  29  86 S17       30.09F WCI  21
SIDNEY         CLOUDY    34  30  85 S18       30.14F WCI  23
$$

NEZ057>060-069>072-079>082-221100-
SOUTHWEST NEBRASKA

CITY           SKY/WX    TMP DP  RH WIND       PRES   REMARKS
NORTH PLATTE   CLOUDY    32  25  75 E12       30.27F WCI  23
IMPERIAL       CLOUDY    35  27  72 SE15G26   30.22F WCI  25
LEXINGTON      PTCLDY    33  25  71 E5        30.31R WCI  29
MCCOOK         CLOUDY    35  25  66 SE10      30.28F WCI  27
OGALLALA       CLOUDY    36  30  79 SE8       30.21F WCI  30
$$

NEZ005>010-023>029-035>040-094-221100-
NORTH CENTRAL NEBRASKA

CITY           SKY/WX    TMP DP  RH WIND       PRES   REMARKS
VALENTINE      CLOUDY    32  27  81 SE22      30.22F WCI  19
AINSWORTH      CLOUDY    32  31  95 SE14      30.26F WCI  22
BROKEN BOW     CLEAR     31  27  85 E7        30.29F WCI  24
O`NEILL        CLOUDY    32  28  84 SE10      30.36R WCI  23
ORD            CLOUDY    33  24  69 SE9       30.33S WCI  25
THEDFORD       PTCLDY    31  24  77 SE10      30.24F WCI  22
$$

NEZ041-046>049-061>064-073>077-083>087-221100-
SOUTH CENTRAL NEBRASKA

CITY           SKY/WX    TMP DP  RH WIND       PRES   REMARKS
GRAND ISLAND   PTCLDY    35  26  69 E12       30.35F WCI  27
AURORA         MOCLDY    35  26  68 E8        30.34F WCI  28
HASTINGS       PTCLDY    35  24  64 E12       30.32F WCI  27
HEBRON         CLOUDY    36  25  64 E10       30.36S WCI  28
HOLDREGE       CLOUDY    34  23  64 E8        30.30R WCI  27
KEARNEY *      PTCLDY    34  21  60 E10       30.32S WCI  26
YORK           CLOUDY    36  27  69 E14       30.35F WCI  27
$$

NEZ011>018-030>034-042>045-221100-
NORTHEAST NEBRASKA

CITY           SKY/WX    TMP DP  RH WIND       PRES   REMARKS
NORFOLK        MIX PCPN  31  21  66 E13       30.37F WCI  21
ALBION         MIX PCPN  33  24  67 E12       30.37R WCI  25
BLAIR          CLOUDY    33  20  60 NE15      30.38F WCI  22
FREMONT        CLOUDY    33  20  58 NE8       30.41R WCI  27
TEKAMAH        CLOUDY    32  20  61 E10       30.42F WCI  24
WAYNE          CLOUDY    31  22  68 E10       30.41F WCI  22
$$

NEZ050>053-065>068-078-088>093-221100-
SOUTHEAST NEBRASKA

CITY           SKY/WX    TMP DP  RH WIND       PRES   REMARKS
LINCOLN        MOCLDY    36  24  62 NE10      30.40F WCI  28
OMAHA EPPLEY   CLOUDY    34  19  54 E13       30.41F WCI  25
BEATRICE       PTCLDY    36  26  67 E7        30.37S WCI  30
FALLS CITY     CLOUDY    35  24  64 E9        30.37F WCI  28
NEBRASKA CITY  CLOUDY    35  17  47 E16       30.38S WCI  25
PLATTSMOUTH    CLOUDY    34  16  48 NE17      30.38F WCI  23
$$

NEZ044-045-051>053-067-221100-
OMAHA AREA

CITY           SKY/WX    TMP DP  RH WIND       PRES   REMARKS
OMAHA EPPLEY   CLOUDY    34  19  54 E13       30.41F WCI  25
BLAIR          CLOUDY    33  20  60 NE15      30.38F WCI  22
FREMONT        CLOUDY    33  20  58 NE8       30.41R WCI  27
MILLARD        CLOUDY    36  21  54 E7        30.41S WCI  31
OFFUTT AFB     CLOUDY    34  19  52 E10       30.40F WCI  26
PLATTSMOUTH    CLOUDY    34  16  48 NE17      30.38F WCI  23
WAHOO          CLOUDY    34  19  54 E10       30.40S WCI  26
$$




USA.gov is the U.S. government's official web portal to all federal, state and local government web resources and services.